Flag for Liechtenstein Weather past 2 weeks in Vaduz, Liechtenstein

Now
69 °F

Fog.


Feels Like: 69 °F
Forecast: 57 / 78 °F
Wind: 1 mph from North

Location: Vaduz

Current Time: Jul 8, 2015 at 8:47:10 AM

Latest Report: Jul 8, 2015 at 8:00 AM


Visibility: 6 mi

Pressure: 29.90 "Hg

Humidity: 89%

Dew point: 65 °F

Location of VaduzLocation

Historic Weather in Vaduz — Graph

°F

Vaduz temperature yesterday

Maximum temperature yesterday: 95 °F (at 2:00 PM)
Minimum temperature yesterday: 73 °F (at 12:00 AM)
Average temperature yesterday: 82 °F

Past Weeks' High & Low Weather Summary

 TemperatureHumidityPressure
High95 °F (Jul 7, 2:00 PM)98% (Jun 28, 5:00 AM)30.24 "Hg (Jun 28, 5:00 AM)
Low48 °F (Jun 24, 6:00 AM)29% (Jul 4, 5:00 PM)29.72 "Hg (Jul 7, 7:00 PM)
Average73 °F59%30.08 "Hg
* Reported Jun 23 7:00 AM — Jul 8 7:00 AM, Vaduz, Weather by CustomWeather, © 2015

Note: Actual official high and low records may vary slightly from our data, if they occured in-between our weather recording intervals... More about our weather records

Advertising

Vaduz weather history for previous 24 hours

 ConditionsComfort  
Time TempWeatherWind HumidityBarometerVisibility
7:00 AM
Wed, Jul 8
67 °FMild.No wind95%29.90 "HgN/A
6:00 AM67 °FMild.1 mph95%29.92 "HgN/A
4:00 AM68 °FMild.5 mph91%29.89 "HgN/A
3:00 AM73 °FMild.3 mph69%29.86 "HgN/A
2:00 AM71 °FPassing clouds.2 mph76%29.85 "Hg9 mi
1:00 AM71 °FMild.5 mph74%29.82 "HgN/A
12:00 AM71 °FMild.1 mph74%29.83 "HgN/A
11:00 PM
Tue, Jul 7
76 °FMild.3 mph54%29.82 "HgN/A
10:00 PM73 °FMild.8 mph63%29.83 "HgN/A
9:00 PM77 °FWarm.16 mph49%29.83 "HgN/A
8:00 PM82 °FWarm.2 mph76%29.72 "HgN/A
7:00 PM90 °FHot.2 mph56%29.72 "HgN/A
6:00 PM92 °FHot.6 mph46%29.74 "HgN/A
5:00 PM93 °FHot.7 mph45%29.75 "HgN/A
4:00 PM94 °FExtremely hot.6 mph49%29.78 "HgN/A
3:00 PM95 °FExtremely hot.5 mph41%29.79 "HgN/A
2:00 PM95 °FExtremely hot.2 mph37%29.81 "HgN/A
1:00 PM92 °FHot.2 mph45%29.83 "HgN/A
12:00 PM90 °FHot.3 mph42%29.85 "HgN/A
11:00 AM85 °FHaze.6 mph54%29.88 "Hg6 mi
10:00 AM82 °FWarm.7 mph54%29.93 "HgN/A
9:00 AM79 °FWarm.8 mph56%29.96 "HgN/A
8:00 AM77 °FFog.6 mph61%29.97 "Hg2 mi
Weather by CustomWeather, © 2015

See weather overviewHow to use our weather pages